This demonstration page uses our WeatherBlox Daily Observations layout. Learn more.

Left ArrowRight Arrow

39.29038, -76.61219

Hourly Observations for December 3, 2020

Temp ( °F °C ) Dew Point ( °F °C ) Humidity (%) Winds ( mph kmh ) Pressure ( in mb ) Visibility ( mi km ) Precip ( " mm )
12:54 am 00:54 Clear 33 0.6 20 -6.7 58 58 W 6 9 30.24 1024 10 16 0.00 0.00
1:54 am 01:54 Clear 36 2.2 19 -7.2 50 50 WSW 5 7 30.25 1024 10 16 0.00 0.00
2:54 am 02:54 Clear 35 1.7 19 -7.2 52 52 SW 5 7 30.27 1025 10 16 0.00 0.00
3:54 am 03:54 Clear 33 0.6 19 -7.2 56 56 SSW 3 6 30.27 1025 10 16 0.00 0.00
4:54 am 04:54 Mostly Clear 32 0 19 -7.2 59 59 Calm 30.27 1025 10 16 0.00 0.00
5:54 am 05:54 Mostly Clear 30 -1.1 21 -6.1 69 69 Calm 30.28 1026 10 16 0.00 0.00
6:54 am 06:54 Mostly Clear 30 -1.1 21 -6.1 69 69 W 3 6 30.28 1025 10 16 0.00 0.00
7:54 am 07:54 Mostly Cloudy 31 -0.6 22 -5.6 69 69 W 3 6 30.30 1026 10 16 0.00 0.00
8:54 am 08:54 Mostly Cloudy 39 3.9 25 -3.9 57 57 W 3 6 30.30 1026 10 16 0.00 0.00
9:54 am 09:54 Mostly Cloudy 44 6.7 23 -5 43 43 SSW 5 7 30.31 1026 10 16 0.00 0.00
10:54 am 10:54 Partly Cloudy 49 9.4 19 -7.2 31 31 VRB 3 6 30.28 1025 10 16 0.00 0.00
11:54 am 11:54 Mostly Cloudy 52 11.1 20 -6.7 28 28 SSW 5 7 30.27 1025 10 16 0.00 0.00
12:54 pm 12:54 Mostly Cloudy 54 12.2 20 -6.7 26 26 SW 6 9 30.24 1024 10 16 0.00 0.00
1:54 pm 13:54 Mostly Cloudy 54 12.2 19 -7.2 25 25 Calm 30.21 1023 10 16 0.00 0.00
2:54 pm 14:54 Mostly Cloudy 55 12.8 19 -7.2 24 24 SSW 8 13 30.21 1023 10 16 0.00 0.00
3:54 pm 15:54 Mostly Cloudy 54 12.2 20 -6.7 26 26 WSW 8 13 30.20 1023 10 16 0.00 0.00
4:54 pm 16:54 Mostly Cloudy 52 11.1 19 -7.2 27 27 SSW 5 7 30.19 1022 10 16 0.00 0.00
5:54 pm 17:54 Clear 50 10 21 -6.1 32 32 SSW 3 6 30.20 1023 10 16 0.00 0.00
6:54 pm 18:54 Mostly Cloudy 50 10 22 -5.6 33 33 SW 3 6 30.21 1023 10 16 0.00 0.00
7:54 pm 19:54 Mostly Cloudy 45 7.2 24 -4.4 44 44 SSE 3 6 30.19 1022 10 16 0.00 0.00
8:54 pm 20:54 Mostly Cloudy 45 7.2 26 -3.3 48 48 Calm 30.19 1022 10 16 0.00 0.00
9:54 pm 21:54 Mostly Cloudy 46 7.8 26 -3.3 46 46 Calm 30.19 1022 10 16 0.00 0.00
10:54 pm 22:54 Cloudy 44 6.7 30 -1.1 58 58 Calm 30.17 1022 10 16 0.00 0.00
11:54 pm 23:54 Cloudy 47 8.3 25 -3.9 42 42 S 6 9 30.14 1021 10 16 0.00 0.00

Powered by AerisWeather